METEOR 2-11 DEB, 40704

Orbit data source: Space-Track

METEOR 2-11 DEB, 40704 is space debris in LEO originally from a launch on Thu, 05 Jul 1984 UTC launched from the Plesetsk Missile And Space Complex (PKMTR). Debris objects in space refer to the collection of defunct objects orbiting the Earth. Examples of debris include non-operational satellites, rocket bodies, and fragments generated from explosions, collisions, or faulty payload assembly.

Loading next visibility...
Identifier
40704, 1984-072F
Orbit
LEO
Country
Flag of CISCIS
Related business
Manufacturer
Unknown
Mission
Spacecraft
Bus & Motor
Unknown
Mass
Unknown
Launch date (UTC)
1984-07-05 (42 years ago)
Launch vehicle
Unknown
Launch site
Plesetsk Missile And Space Complex (PKMTR)
Object type
Payload
Rocket body
Debris
Shape & HBR
Unknown shape, 0.1 m
Radar Cross Section
Small (<0.1 m²)

Expand to show TLE details & history
Last TLE update: 1 week ago

TLE from 1 week ago
0 METEOR 2-11 DEB
1 40704U 84072F   26055.81405347  .00001190  00000-0  81471-3 0  9991
2 40704  82.5189  97.3796 0024239 285.9130  73.9367 13.98825083551675
Epoch: 2026-02-24T19:32Z
TLE epoch observation values (Epoch: 2026-02-24T19:32:14.219Z)
Latitude
-0.00007°
Longitude
9.63216°
Altitude
895.947 km
Speed
7.407 km/s
True Right ascension
06h 29m 31s
True Declination
0° 00' 00"
Sunlit
Object was in partial shadow at epoch
Visualization orbit readout
Latitude
Unknown
Longitude
Unknown
Altitude
Unknown
Speed
Unknown
Apparent Right ascension
Unknown
Apparent Declination
Unknown
Sunlit
N/A
Visualization observer readout
Local Sidereal Time
17:55:28
Azimuth
Unknown
Elevation
Unknown
Doppler factor
Unknown
Orbital elements
Apogee altitude
912.629 km
Perigee altitude
877.37 km
Semi-major axis
7,273.136 km
Eccentricity
0.00242
Inclination
82.5189°
RAAN
97.3796°
Arg. of periapsis
285.913°
True anomaly
74.20384°
Mean anomaly
73.9367°
Eccentric anomaly
74.07025°
Mean motion
3.49913 °/min
Orbital period
102.88 mins
BSTAR
0.00081471
Loading maneuver chart data...
Computing Atmospheric mass density...
Loading historical data...
Loading historical data...
Loading historical data...
Loading historical data...
Loading historical data...
Loading historical data...
Loading historical data...

Documentation

Showing up to 5 results
|